| time (UTC) | temp C | wind direction | speed KPH | gust KPH | rain 1hr cm | rain 24hr cm | rain mn cm | humidity % | barometer mb |
| 20260507153102 | 15 | 280 | 8.0 | 16.1 | 0.00 | 0.00 | 0.00 | 61 | 1014.6 |
| 20260507152601 | 15 | 245 | 3.2 | 14.5 | 0.00 | 0.00 | 0.00 | 65 | 1014.6 |
| 20260507152059 | 15 | 277 | 6.4 | 14.5 | 0.00 | 0.00 | 0.00 | 61 | 1014.6 |
| 20260507151558 | 15 | 201 | 3.2 | 11.3 | 0.00 | 0.00 | 0.00 | 61 | 1014.6 |
| 20260507151058 | 15 | 211 | 4.8 | 11.3 | 0.00 | 0.00 | 0.00 | 61 | 1014.6 |
| 20260507150558 | 15 | 224 | 4.8 | 11.3 | 0.00 | 0.00 | 0.00 | 64 | 1014.6 |
| 20260507150058 | 15 | 202 | 1.6 | 9.7 | 0.00 | 0.00 | 0.00 | 61 | 1014.7 |
| 20260507145558 | 15 | 0 | 0.0 | 3.2 | 0.00 | 0.00 | 0.00 | 63 | 1014.7 |
| 20260507145058 | 15 | 0 | 0.0 | 4.8 | 0.00 | 0.00 | 0.00 | 66 | 1014.7 |
| 20260507144559 | 15 | 286 | 1.6 | 11.3 | 0.00 | 0.00 | 0.00 | 66 | 1014.8 |
| 20260507144059 | 15 | 235 | 1.6 | 11.3 | 0.00 | 0.00 | 0.00 | 67 | 1014.9 |
| 20260507143600 | 15 | 301 | 4.8 | 11.3 | 0.00 | 0.00 | 0.00 | 68 | 1014.9 |
| 20260507143100 | 15 | 291 | 4.8 | 11.3 | 0.00 | 0.00 | 0.00 | 69 | 1014.9 |
| 20260507142558 | 15 | 313 | 4.8 | 11.3 | 0.00 | 0.00 | 0.00 | 68 | 1014.9 |
| 20260507142059 | 15 | 274 | 3.2 | 9.7 | 0.00 | 0.00 | 0.00 | 67 | 1015.0 |
| 20260507141558 | 15 | 294 | 3.2 | 9.7 | 0.00 | 0.00 | 0.00 | 66 | 1015.0 |
| 20260507141139 | 15 | 313 | 3.2 | 6.4 | 0.00 | 0.00 | 0.00 | 68 | 1015.0 |
| 20260507140600 | 15 | 304 | 1.6 | 4.8 | 0.00 | 0.00 | 0.00 | 68 | 1015.1 |
| 20260507140109 | 15 | 0 | 1.6 | 6.4 | 0.00 | 0.00 | 0.00 | 65 | 1015.1 |
| 20260507135559 | 15 | 291 | 1.6 | 6.4 | 0.00 | 0.00 | 0.00 | 65 | 1015.0 |
| 20260507135103 | 15 | 309 | 1.6 | 4.8 | 0.00 | 0.00 | 0.00 | 67 | 1014.9 |
| 20260507134558 | 15 | 311 | 1.6 | 4.8 | 0.00 | 0.00 | 0.00 | 68 | 1015.0 |
| 20260507134058 | 15 | 296 | 1.6 | 4.8 | 0.00 | 0.00 | 0.00 | 66 | 1015.0 |
| 20260507133559 | 14 | 294 | 1.6 | 4.8 | 0.00 | 0.00 | 0.00 | 67 | 1015.0 |
| 20260507133056 | 14 | 332 | 0.0 | 4.8 | 0.00 | 0.00 | 0.00 | 71 | 1015.1 |
| 20260507132558 | 14 | 302 | 1.6 | 4.8 | 0.00 | 0.00 | 0.00 | 70 | 1015.1 |
| 20260507132059 | 13 | 0 | 1.6 | 4.8 | 0.00 | 0.00 | 0.00 | 71 | 1015.1 |
| 20260507131602 | 13 | 298 | 1.6 | 6.4 | 0.00 | 0.00 | 0.00 | 72 | 1015.1 |
| 20260507131059 | 13 | 298 | 3.2 | 6.4 | 0.00 | 0.00 | 0.00 | 72 | 1015.1 |
| 20260507130559 | 13 | 290 | 3.2 | 9.7 | 0.00 | 0.00 | 0.00 | 72 | 1015.1 |
| 20260507130057 | 13 | 306 | 4.8 | 9.7 | 0.00 | 0.00 | 0.00 | 75 | 1015.1 |
| 20260507125558 | 13 | 273 | 4.8 | 12.9 | 0.00 | 0.00 | 0.00 | 76 | 1015.2 |
| 20260507125058 | 13 | 289 | 4.8 | 14.5 | 0.00 | 0.00 | 0.00 | 74 | 1015.2 |
| 20260507124600 | 13 | 289 | 6.4 | 14.5 | 0.00 | 0.00 | 0.00 | 73 | 1015.2 |
| 20260507124059 | 13 | 316 | 3.2 | 14.5 | 0.00 | 0.00 | 0.00 | 73 | 1015.3 |
| 20260507123558 | 13 | 231 | 3.2 | 16.1 | 0.00 | 0.00 | 0.00 | 70 | 1015.4 |
| 20260507123100 | 13 | 282 | 8.0 | 16.1 | 0.00 | 0.00 | 0.00 | 66 | 1015.2 |
| 20260507122558 | 14 | 200 | 6.4 | 11.3 | 0.00 | 0.00 | 0.00 | 64 | 1015.2 |
| 20260507122059 | 14 | 189 | 4.8 | 12.9 | 0.00 | 0.00 | 0.00 | 61 | 1015.2 |
| 20260507121601 | 14 | 208 | 6.4 | 14.5 | 0.00 | 0.00 | 0.00 | 63 | 1015.2 |
| 20260507121058 | 14 | 182 | 8.0 | 14.5 | 0.00 | 0.00 | 0.00 | 60 | 1015.2 |
| 20260507120558 | 14 | 215 | 4.8 | 11.3 | 0.00 | 0.00 | 0.00 | 64 | 1015.2 |
| 20260507120059 | 15 | 192 | 4.8 | 11.3 | 0.00 | 0.00 | 0.00 | 61 | 1015.2 |
| 20260507115559 | 15 | 188 | 4.8 | 16.1 | 0.00 | 0.00 | 0.00 | 63 | 1015.2 |
| 20260507115058 | 15 | 150 | 6.4 | 17.7 | 0.00 | 0.00 | 0.00 | 63 | 1015.2 |
| 20260507114557 | 14 | 170 | 8.0 | 17.7 | 0.00 | 0.00 | 0.00 | 65 | 1015.3 |
| 20260507114058 | 14 | 173 | 8.0 | 17.7 | 0.00 | 0.00 | 0.00 | 64 | 1015.4 |
| 20260507113602 | 14 | 201 | 8.0 | 19.3 | 0.00 | 0.00 | 0.00 | 63 | 1015.4 |
| 20260507113059 | 14 | 165 | 11.3 | 19.3 | 0.00 | 0.00 | 0.00 | 62 | 1015.3 |
| 20260507112559 | 15 | 171 | 6.4 | 19.3 | 0.00 | 0.00 | 0.00 | 65 | 1015.3 |
| 20260507112101 | 15 | 254 | 6.4 | 19.3 | 0.00 | 0.00 | 0.00 | 63 | 1015.3 |
| 20260507111559 | 15 | 175 | 8.0 | 19.3 | 0.00 | 0.00 | 0.00 | 59 | 1015.3 |
| 20260507111058 | 15 | 211 | 9.7 | 19.3 | 0.00 | 0.00 | 0.00 | 64 | 1015.3 |
| 20260507110559 | 15 | 179 | 8.0 | 17.7 | 0.00 | 0.00 | 0.00 | 63 | 1015.3 |
| 20260507110101 | 15 | 146 | 8.0 | 19.3 | 0.00 | 0.00 | 0.00 | 64 | 1015.4 |
| 20260507105558 | 15 | 173 | 6.4 | 19.3 | 0.00 | 0.00 | 0.00 | 63 | 1015.4 |
| 20260507105058 | 15 | 180 | 9.7 | 19.3 | 0.00 | 0.00 | 0.00 | 62 | 1015.4 |
| 20260507104557 | 15 | 184 | 9.7 | 19.3 | 0.00 | 0.00 | 0.00 | 65 | 1015.5 |
| 20260507104059 | 15 | 178 | 9.7 | 16.1 | 0.00 | 0.00 | 0.00 | 64 | 1015.6 |
| 20260507103559 | 15 | 136 | 8.0 | 22.5 | 0.00 | 0.00 | 0.00 | 64 | 1015.4 |
| 20260507103057 | 15 | 156 | 9.7 | 22.5 | 0.00 | 0.00 | 0.00 | 63 | 1015.5 |
| 20260507102558 | 15 | 163 | 8.0 | 16.1 | 0.00 | 0.00 | 0.00 | 65 | 1015.5 |
| 20260507102058 | 15 | 188 | 6.4 | 16.1 | 0.00 | 0.00 | 0.00 | 67 | 1015.6 |
| 20260507101608 | 15 | 214 | 6.4 | 17.7 | 0.00 | 0.00 | 0.00 | 67 | 1015.6 |
| 20260507101058 | 15 | 201 | 8.0 | 17.7 | 0.00 | 0.00 | 0.00 | 68 | 1015.7 |
| 20260507100602 | 15 | 214 | 9.7 | 17.7 | 0.00 | 0.00 | 0.00 | 69 | 1015.7 |
| 20260507100101 | 15 | 203 | 9.7 | 17.7 | 0.00 | 0.00 | 0.00 | 66 | 1015.6 |
| 20260507095600 | 15 | 150 | 6.4 | 16.1 | 0.00 | 0.00 | 0.00 | 68 | 1015.6 |
| 20260507095059 | 15 | 159 | 6.4 | 17.7 | 0.00 | 0.00 | 0.00 | 67 | 1015.6 |
| 20260507094604 | 15 | 186 | 6.4 | 17.7 | 0.00 | 0.00 | 0.00 | 67 | 1015.5 |
| 20260507094101 | 15 | 0 | 6.4 | 14.5 | 0.00 | 0.00 | 0.00 | 70 | 1015.6 |
| 20260507093558 | 15 | 109 | 4.8 | 22.5 | 0.00 | 0.00 | 0.00 | 66 | 1015.4 |
| 20260507093100 | 15 | 135 | 4.8 | 22.5 | 0.00 | 0.00 | 0.00 | 70 | 1015.6 |
| 20260507092559 | 15 | 178 | 4.8 | 17.7 | 0.00 | 0.00 | 0.00 | 70 | 1015.6 |
| 20260507092058 | 15 | 188 | 8.0 | 17.7 | 0.00 | 0.00 | 0.00 | 72 | 1015.6 |
| 20260507091605 | 15 | 134 | 8.0 | 14.5 | 0.00 | 0.00 | 0.00 | 70 | 1015.7 |
| 20260507091058 | 14 | 171 | 8.0 | 14.5 | 0.00 | 0.00 | 0.00 | 74 | 1015.7 |
| 20260507090559 | 13 | 101 | 8.0 | 16.1 | 0.00 | 0.00 | 0.00 | 72 | 1015.8 |
| 20260507090113 | 13 | 178 | 8.0 | 16.1 | 0.00 | 0.00 | 0.00 | 74 | 1015.7 |
| 20260507085559 | 13 | 163 | 6.4 | 14.5 | 0.00 | 0.00 | 0.00 | 73 | 1015.8 |
| 20260507085059 | 13 | 134 | 6.4 | 12.9 | 0.00 | 0.00 | 0.00 | 72 | 1015.7 |
| 20260507084600 | 12 | 182 | 6.4 | 12.9 | 0.00 | 0.00 | 0.00 | 72 | 1015.7 |
| 20260507084059 | 12 | 103 | 6.4 | 12.9 | 0.00 | 0.00 | 0.00 | 73 | 1015.7 |
| 20260507083602 | 12 | 149 | 6.4 | 14.5 | 0.00 | 0.00 | 0.00 | 74 | 1015.7 |
| 20260507083102 | 12 | 128 | 6.4 | 14.5 | 0.00 | 0.00 | 0.00 | 75 | 1015.7 |
| 20260507082559 | 12 | 130 | 3.2 | 16.1 | 0.00 | 0.00 | 0.00 | 75 | 1015.7 |
| 20260507082059 | 11 | 90 | 8.0 | 16.1 | 0.00 | 0.00 | 0.00 | 74 | 1015.6 |
| 20260507081602 | 11 | 150 | 8.0 | 16.1 | 0.00 | 0.00 | 0.00 | 74 | 1015.7 |
| 20260507081059 | 11 | 150 | 4.8 | 14.5 | 0.00 | 0.00 | 0.00 | 76 | 1015.7 |
| 20260507080559 | 11 | 74 | 4.8 | 16.1 | 0.00 | 0.00 | 0.00 | 75 | 1015.7 |
| 20260507075558 | 11 | 96 | 6.4 | 16.1 | 0.00 | 0.00 | 0.00 | 74 | 1015.5 |
| 20260507075058 | 11 | 90 | 4.8 | 12.9 | 0.00 | 0.00 | 0.00 | 75 | 1015.5 |
| 20260507074559 | 11 | 150 | 4.8 | 12.9 | 0.00 | 0.00 | 0.00 | 74 | 1015.5 |
| 20260507074058 | 11 | 103 | 6.4 | 12.9 | 0.00 | 0.00 | 0.00 | 74 | 1015.5 |
| 20260507073558 | 11 | 88 | 1.6 | 12.9 | 0.00 | 0.00 | 0.00 | 75 | 1015.5 |
| 20260507073110 | 11 | 102 | 3.2 | 12.9 | 0.00 | 0.00 | 0.00 | 75 | 1015.4 |
| 20260507072559 | 11 | 0 | 4.8 | 12.9 | 0.00 | 0.00 | 0.00 | 75 | 1015.5 |
| 20260507072058 | 11 | 111 | 4.8 | 12.9 | 0.00 | 0.00 | 0.00 | 76 | 1015.5 |
| 20260507071600 | 10 | 91 | 4.8 | 12.9 | 0.00 | 0.00 | 0.00 | 77 | 1015.4 |
| 20260507071059 | 10 | 82 | 4.8 | 12.9 | 0.00 | 0.00 | 0.00 | 76 | 1015.4 |
| 20260507070559 | 10 | 78 | 3.2 | 12.9 | 0.00 | 0.00 | 0.00 | 76 | 1015.4 |
| 20260507070138 | 10 | 92 | 1.6 | 12.9 | 0.00 | 0.00 | 0.00 | 77 | 1015.4 |
| 20260507065602 | 10 | 114 | 6.4 | 12.9 | 0.00 | 0.00 | 0.00 | 77 | 1015.4 |
| 20260507065058 | 10 | 101 | 3.2 | 14.5 | 0.00 | 0.00 | 0.00 | 77 | 1015.3 |
| 20260507064600 | 10 | 98 | 3.2 | 14.5 | 0.00 | 0.00 | 0.00 | 78 | 1015.4 |
| 20260507064058 | 10 | 94 | 4.8 | 14.5 | 0.00 | 0.00 | 0.00 | 78 | 1015.3 |
| 20260507063559 | 9 | 100 | 1.6 | 12.9 | 0.00 | 0.00 | 0.00 | 78 | 1015.4 |
| 20260507063102 | 9 | 0 | 3.2 | 12.9 | 0.00 | 0.00 | 0.00 | 78 | 1015.4 |
| 20260507062558 | 9 | 98 | 4.8 | 12.9 | 0.00 | 0.00 | 0.00 | 79 | 1015.4 |
| 20260507062101 | 9 | 136 | 3.2 | 6.4 | 0.00 | 0.00 | 0.00 | 80 | 1015.5 |
| 20260507061559 | 8 | 0 | 0.0 | 6.4 | 0.00 | 0.00 | 0.00 | 80 | 1015.4 |
| 20260507061059 | 8 | 121 | 1.6 | 6.4 | 0.00 | 0.00 | 0.00 | 80 | 1015.4 |
| 20260507060558 | 8 | 150 | 0.0 | 6.4 | 0.00 | 0.00 | 0.00 | 80 | 1015.4 |
| 20260507060059 | 8 | 173 | 1.6 | 11.3 | 0.00 | 0.00 | 0.00 | 80 | 1015.3 |
| 20260507055559 | 8 | 123 | 1.6 | 11.3 | 0.00 | 0.00 | 0.00 | 80 | 1015.3 |
| 20260507055059 | 8 | 154 | 3.2 | 12.9 | 0.00 | 0.00 | 0.00 | 80 | 1015.3 |
| 20260507054613 | 8 | 108 | 4.8 | 12.9 | 0.00 | 0.00 | 0.00 | 79 | 1015.1 |
| 20260507054058 | 8 | 150 | 1.6 | 9.7 | 0.00 | 0.00 | 0.00 | 81 | 1015.0 |
| 20260507053600 | 8 | 119 | 3.2 | 8.0 | 0.00 | 0.00 | 0.00 | 81 | 1015.1 |
| 20260507053058 | 8 | 107 | 1.6 | 4.8 | 0.00 | 0.00 | 0.00 | 82 | 1015.0 |
| 20260507052600 | 8 | 86 | 0.0 | 3.2 | 0.00 | 0.00 | 0.00 | 82 | 1015.1 |
| 20260507052058 | 8 | 0 | 0.0 | 3.2 | 0.00 | 0.00 | 0.00 | 83 | 1015.1 |
| 20260507051556 | 8 | 0 | 0.0 | 3.2 | 0.00 | 0.00 | 0.00 | 82 | 1015.1 |
| 20260507051058 | 8 | 0 | 0.0 | 6.4 | 0.00 | 0.00 | 0.00 | 82 | 1015.1 |
| 20260507050558 | 7 | 0 | 0.0 | 6.4 | 0.00 | 0.00 | 0.00 | 81 | 1015.2 |
| 20260507050057 | 7 | 0 | 0.0 | 3.2 | 0.00 | 0.00 | 0.00 | 82 | 1015.0 |
| 20260507045601 | 7 | 0 | 0.0 | 1.6 | 0.00 | 0.00 | 0.00 | 81 | 1015.0 |
| 20260507045058 | 7 | 132 | 0.0 | 1.6 | 0.00 | 0.00 | 0.00 | 82 | 1015.0 |
| 20260507044603 | 7 | 0 | 0.0 | 0.0 | 0.00 | 0.00 | 0.00 | 83 | 1015.0 |
| 20260507044058 | 7 | 0 | 0.0 | 0.0 | 0.00 | 0.00 | 0.00 | 83 | 1015.0 |
| 20260507043558 | 7 | 0 | 0.0 | 0.0 | 0.00 | 0.00 | 0.00 | 82 | 1015.1 |
| 20260507043059 | 7 | 0 | 0.0 | 0.0 | 0.00 | 0.00 | 0.00 | 82 | 1014.9 |
| 20260507042559 | 8 | 0 | 0.0 | 1.6 | 0.00 | 0.00 | 0.00 | 82 | 1014.9 |
| 20260507042100 | 8 | 0 | 0.0 | 1.6 | 0.00 | 0.00 | 0.00 | 82 | 1014.9 |
| 20260507041605 | 8 | 0 | 0.0 | 4.8 | 0.00 | 0.00 | 0.00 | 80 | 1014.9 |
| 20260507041058 | 8 | 126 | 0.0 | 4.8 | 0.00 | 0.00 | 0.00 | 79 | 1014.9 |
| 20260507040601 | 8 | 109 | 0.0 | 4.8 | 0.00 | 0.00 | 0.00 | 78 | 1015.0 |
| 20260507040058 | 8 | 0 | 1.6 | 3.2 | 0.00 | 0.00 | 0.00 | 78 | 1015.0 |
| 20260507035558 | 8 | 0 | 0.0 | 3.2 | 0.00 | 0.00 | 0.00 | 79 | 1014.9 |
| 20260507035058 | 8 | 0 | 0.0 | 3.2 | 0.00 | 0.00 | 0.00 | 79 | 1015.0 |
| 20260507034604 | 8 | 0 | 0.0 | 6.4 | 0.00 | 0.00 | 0.00 | 79 | 1015.0 |
| 20260507034057 | 8 | 159 | 0.0 | 6.4 | 0.00 | 0.00 | 0.00 | 78 | 1014.9 |
| 20260507033558 | 8 | 144 | 0.0 | 3.2 | 0.00 | 0.00 | 0.00 | 76 | 1014.9 |
| 20260507033057 | 8 | 0 | 0.0 | 4.8 | 0.00 | 0.00 | 0.00 | 76 | 1014.9 |
| 20260507032559 | 8 | 0 | 0.0 | 4.8 | 0.00 | 0.00 | 0.00 | 76 | 1014.9 |
| 20260507032058 | 8 | 121 | 0.0 | 4.8 | 0.00 | 0.00 | 0.00 | 76 | 1014.9 |
| 20260507031600 | 8 | 0 | 0.0 | 4.8 | 0.00 | 0.00 | 0.00 | 77 | 1014.9 |
| 20260507031103 | 8 | 136 | 0.0 | 4.8 | 0.00 | 0.00 | 0.00 | 76 | 1014.8 |
| 20260507030559 | 8 | 128 | 0.0 | 4.8 | 0.00 | 0.00 | 0.00 | 77 | 1014.8 |
| 20260507030108 | 8 | 123 | 0.0 | 4.8 | 0.00 | 0.00 | 0.00 | 77 | 1014.9 |
| 20260507025558 | 8 | 0 | 1.6 | 4.8 | 0.00 | 0.00 | 0.00 | 76 | 1014.9 |
| 20260507025058 | 8 | 153 | 1.6 | 6.4 | 0.00 | 0.00 | 0.00 | 77 | 1014.9 |
| 20260507024617 | 8 | 129 | 1.6 | 6.4 | 0.00 | 0.00 | 0.00 | 77 | 1014.9 |
| 20260507024102 | 8 | 148 | 0.0 | 6.4 | 0.00 | 0.00 | 0.00 | 76 | 1014.9 |
| 20260507023601 | 8 | 138 | 1.6 | 6.4 | 0.00 | 0.00 | 0.00 | 76 | 1014.8 |
| 20260507023058 | 8 | 122 | 1.6 | 6.4 | 0.00 | 0.00 | 0.00 | 76 | 1014.8 |
| 20260507022558 | 8 | 155 | 3.2 | 6.4 | 0.00 | 0.00 | 0.00 | 75 | 1014.8 |
| 20260507022059 | 8 | 139 | 1.6 | 6.4 | 0.00 | 0.00 | 0.00 | 75 | 1014.7 |
| 20260507021617 | 8 | 125 | 3.2 | 6.4 | 0.00 | 0.00 | 0.00 | 75 | 1014.7 |
| 20260507021101 | 8 | 124 | 3.2 | 6.4 | 0.00 | 0.00 | 0.00 | 75 | 1014.8 |
| 20260507020559 | 8 | 108 | 3.2 | 6.4 | 0.00 | 0.00 | 0.00 | 75 | 1014.7 |
| 20260507020106 | 8 | 164 | 1.6 | 6.4 | 0.00 | 0.00 | 0.00 | 74 | 1014.8 |
| 20260507015558 | 8 | 0 | 3.2 | 6.4 | 0.00 | 0.00 | 0.00 | 75 | 1014.9 |
| 20260507015100 | 8 | 127 | 1.6 | 9.7 | 0.00 | 0.00 | 0.00 | 74 | 1014.8 |
| 20260507014615 | 8 | 139 | 1.6 | 9.7 | 0.00 | 0.00 | 0.00 | 74 | 1014.8 |
| 20260507014059 | 8 | 142 | 1.6 | 4.8 | 0.00 | 0.00 | 0.00 | 75 | 1014.8 |
| 20260507013558 | 8 | 90 | 1.6 | 4.8 | 0.00 | 0.00 | 0.00 | 74 | 1014.7 |
| 20260507013100 | 8 | 0 | 0.0 | 4.8 | 0.00 | 0.00 | 0.00 | 74 | 1014.8 |
| 20260507012607 | 8 | 115 | 0.0 | 6.4 | 0.00 | 0.00 | 0.00 | 74 | 1014.7 |
| 20260507012058 | 8 | 0 | 1.6 | 8.0 | 0.00 | 0.00 | 0.00 | 74 | 1014.6 |
| 20260507011558 | 8 | 117 | 3.2 | 8.0 | 0.00 | 0.00 | 0.00 | 74 | 1014.8 |
| 20260507011100 | 8 | 142 | 3.2 | 6.4 | 0.00 | 0.00 | 0.00 | 74 | 1014.8 |
| 20260507010602 | 8 | 114 | 1.6 | 8.0 | 0.00 | 0.00 | 0.00 | 73 | 1014.7 |
| 20260507010116 | 8 | 134 | 1.6 | 8.0 | 0.00 | 0.00 | 0.00 | 72 | 1014.7 |
| 20260507005557 | 8 | 139 | 0.0 | 6.4 | 0.00 | 0.00 | 0.00 | 72 | 1014.8 |
| 20260507005057 | 8 | 105 | 1.6 | 6.4 | 0.00 | 0.00 | 0.00 | 71 | 1014.7 |
| 20260507004557 | 8 | 142 | 1.6 | 8.0 | 0.00 | 0.00 | 0.00 | 71 | 1014.8 |
| 20260507004059 | 9 | 132 | 1.6 | 8.0 | 0.00 | 0.00 | 0.00 | 71 | 1014.8 |
| 20260507003559 | 9 | 115 | 1.6 | 6.4 | 0.00 | 0.00 | 0.00 | 71 | 1014.8 |
| 20260507003100 | 9 | 135 | 0.0 | 6.4 | 0.00 | 0.00 | 0.00 | 71 | 1014.9 |
| 20260507002558 | 9 | 123 | 1.6 | 8.0 | 0.00 | 0.00 | 0.00 | 70 | 1014.9 |
| 20260507002058 | 9 | 128 | 1.6 | 9.7 | 0.00 | 0.00 | 0.00 | 70 | 1014.9 |
| 20260507001606 | 9 | 129 | 3.2 | 9.7 | 0.00 | 0.00 | 0.00 | 70 | 1015.0 |
| 20260507001101 | 9 | 126 | 1.6 | 6.4 | 0.00 | 0.00 | 0.00 | 69 | 1014.9 |
| 20260507000558 | 9 | 0 | 1.6 | 6.4 | 0.00 | 0.00 | 0.00 | 69 | 1015.0 |
| 20260507000058 | 9 | 78 | 1.6 | 6.4 | 0.00 | 0.00 | 0.00 | 69 | 1014.9 |
| 20260506235558 | 9 | 90 | 0.0 | 4.8 | 0.00 | 0.00 | 0.00 | 68 | 1015.0 |
| 20260506235058 | 9 | 107 | 1.6 | 4.8 | 0.00 | 0.00 | 0.00 | 69 | 1015.1 |
| 20260506234600 | 9 | 82 | 3.2 | 4.8 | 0.00 | 0.00 | 0.00 | 69 | 1015.1 |
| 20260506234059 | 9 | 130 | 1.6 | 4.8 | 0.00 | 0.00 | 0.00 | 69 | 1015.0 |
| 20260506233559 | 9 | 0 | 1.6 | 4.8 | 0.00 | 0.00 | 0.00 | 69 | 1015.0 |
| 20260506233059 | 9 | 117 | 0.0 | 3.2 | 0.00 | 0.00 | 0.00 | 69 | 1015.0 |
| 20260506232558 | 9 | 0 | 1.6 | 8.0 | 0.00 | 0.00 | 0.00 | 69 | 1014.9 |
| 20260506232058 | 9 | 0 | 0.0 | 8.0 | 0.00 | 0.00 | 0.00 | 70 | 1014.9 |
| 20260506231600 | 10 | 132 | 1.6 | 6.4 | 0.00 | 0.00 | 0.00 | 66 | 1015.0 |
| 20260506231059 | 10 | 136 | 1.6 | 11.3 | 0.00 | 0.00 | 0.00 | 66 | 1015.0 |
| 20260506230600 | 10 | 0 | 3.2 | 11.3 | 0.00 | 0.00 | 0.00 | 65 | 1015.0 |
| 20260506230105 | 10 | 110 | 3.2 | 9.7 | 0.00 | 0.00 | 0.00 | 65 | 1014.9 |
| 20260506225558 | 10 | 0 | 1.6 | 9.7 | 0.00 | 0.00 | 0.00 | 65 | 1015.0 |
| 20260506225059 | 10 | 113 | 1.6 | 6.4 | 0.00 | 0.00 | 0.00 | 64 | 1014.9 |
| 20260506224601 | 10 | 77 | 1.6 | 6.4 | 0.00 | 0.00 | 0.00 | 63 | 1015.0 |
| 20260506224101 | 10 | 98 | 1.6 | 9.7 | 0.00 | 0.00 | 0.00 | 64 | 1014.9 |
| 20260506223559 | 10 | 105 | 3.2 | 9.7 | 0.00 | 0.00 | 0.00 | 63 | 1015.0 |
| 20260506223059 | 10 | 90 | 1.6 | 8.0 | 0.00 | 0.00 | 0.00 | 63 | 1014.9 |
| 20260506222558 | 10 | 88 | 1.6 | 9.7 | 0.00 | 0.00 | 0.00 | 62 | 1014.9 |
| 20260506222059 | 10 | 128 | 1.6 | 11.3 | 0.00 | 0.00 | 0.00 | 61 | 1014.8 |
| 20260506221601 | 10 | 103 | 3.2 | 11.3 | 0.00 | 0.00 | 0.00 | 60 | 1014.9 |
| 20260506221101 | 10 | 73 | 4.8 | 11.3 | 0.00 | 0.00 | 0.00 | 61 | 1014.7 |
| 20260506220559 | 10 | 98 | 3.2 | 11.3 | 0.00 | 0.00 | 0.00 | 61 | 1014.7 |
| 20260506220058 | 10 | 79 | 4.8 | 9.7 | 0.00 | 0.00 | 0.00 | 62 | 1014.7 |
| 20260506215559 | 11 | 127 | 3.2 | 9.7 | 0.00 | 0.00 | 0.00 | 61 | 1014.6 |
| 20260506215058 | 11 | 113 | 3.2 | 9.7 | 0.00 | 0.00 | 0.00 | 61 | 1014.7 |
| 20260506214609 | 11 | 86 | 1.6 | 9.7 | 0.00 | 0.00 | 0.00 | 60 | 1014.7 |
| 20260506214059 | 11 | 110 | 3.2 | 11.3 | 0.00 | 0.00 | 0.00 | 60 | 1014.7 |
| 20260506213559 | 11 | 57 | 4.8 | 11.3 | 0.00 | 0.00 | 0.00 | 59 | 1014.7 |
| 20260506213102 | 11 | 85 | 4.8 | 11.3 | 0.00 | 0.00 | 0.00 | 60 | 1014.6 |
| 20260506212558 | 11 | 80 | 4.8 | 9.7 | 0.00 | 0.00 | 0.00 | 59 | 1014.6 |
| 20260506212059 | 11 | 75 | 4.8 | 12.9 | 0.00 | 0.00 | 0.00 | 60 | 1014.7 |
| 20260506211558 | 11 | 57 | 4.8 | 12.9 | 0.00 | 0.00 | 0.00 | 59 | 1014.7 |
| 20260506211059 | 11 | 65 | 4.8 | 11.3 | 0.00 | 0.00 | 0.00 | 59 | 1014.5 |
| 20260506210559 | 11 | 73 | 3.2 | 9.7 | 0.00 | 0.00 | 0.00 | 59 | 1014.4 |
| 20260506210100 | 11 | 83 | 4.8 | 9.7 | 0.00 | 0.00 | 0.00 | 59 | 1014.4 |
| 20260506205603 | 11 | 82 | 4.8 | 11.3 | 0.00 | 0.00 | 0.00 | 59 | 1014.4 |
| 20260506205059 | 11 | 90 | 4.8 | 11.3 | 0.00 | 0.00 | 0.00 | 59 | 1014.3 |
| 20260506204601 | 11 | 106 | 3.2 | 9.7 | 0.00 | 0.00 | 0.00 | 60 | 1014.3 |
| 20260506204059 | 11 | 93 | 3.2 | 9.7 | 0.00 | 0.00 | 0.00 | 61 | 1014.3 |
| 20260506203558 | 11 | 57 | 3.2 | 6.4 | 0.00 | 0.00 | 0.00 | 64 | 1014.3 |
| 20260506203108 | 11 | 89 | 1.6 | 4.8 | 0.00 | 0.00 | 0.00 | 65 | 1014.3 |
| 20260506202559 | 11 | 78 | 1.6 | 4.8 | 0.00 | 0.00 | 0.00 | 65 | 1014.2 |
| 20260506202059 | 11 | 78 | 1.6 | 4.8 | 0.00 | 0.00 | 0.00 | 64 | 1014.3 |
| 20260506201620 | 11 | 62 | 1.6 | 4.8 | 0.00 | 0.00 | 0.00 | 64 | 1014.2 |
| 20260506201059 | 11 | 0 | 1.6 | 4.8 | 0.00 | 0.00 | 0.00 | 64 | 1014.2 |
| 20260506200558 | 11 | 62 | 1.6 | 4.8 | 0.00 | 0.00 | 0.00 | 65 | 1014.2 |
| 20260506200058 | 11 | 62 | 1.6 | 3.2 | 0.00 | 0.00 | 0.00 | 64 | 1014.2 |
| 20260506195559 | 12 | 62 | 1.6 | 3.2 | 0.00 | 0.00 | 0.00 | 65 | 1014.0 |
| 20260506195058 | 12 | 62 | 1.6 | 3.2 | 0.00 | 0.00 | 0.00 | 64 | 1014.0 |
| 20260506194603 | 12 | 62 | 1.6 | 3.2 | 0.00 | 0.00 | 0.00 | 66 | 1014.0 |
| 20260506194101 | 12 | 51 | 1.6 | 4.8 | 0.00 | 0.00 | 0.00 | 65 | 1014.0 |
| 20260506193559 | 12 | 46 | 1.6 | 4.8 | 0.00 | 0.00 | 0.00 | 63 | 1014.0 |
| 20260506193107 | 12 | 49 | 1.6 | 4.8 | 0.00 | 0.00 | 0.00 | 60 | 1014.0 |
| 20260506192558 | 13 | 44 | 0.0 | 3.2 | 0.00 | 0.00 | 0.00 | 60 | 1013.9 |
| 20260506192059 | 13 | 0 | 1.6 | 3.2 | 0.00 | 0.00 | 0.00 | 60 | 1013.9 |
| 20260506191600 | 13 | 94 | 0.0 | 1.6 | 0.00 | 0.00 | 0.00 | 59 | 1014.0 |
| 20260506191059 | 13 | 0 | 0.0 | 1.6 | 0.00 | 0.00 | 0.00 | 59 | 1013.9 |
| 20260506190559 | 13 | 94 | 0.0 | 1.6 | 0.00 | 0.00 | 0.00 | 59 | 1014.0 |
| 20260506190058 | 14 | 0 | 0.0 | 3.2 | 0.00 | 0.00 | 0.00 | 57 | 1013.9 |
| 20260506185559 | 14 | 94 | 0.0 | 3.2 | 0.00 | 0.00 | 0.00 | 57 | 1014.0 |
| 20260506185059 | 14 | 0 | 0.0 | 3.2 | 0.00 | 0.00 | 0.00 | 54 | 1013.9 |
| 20260506184602 | 14 | 94 | 0.0 | 3.2 | 0.00 | 0.00 | 0.00 | 55 | 1013.9 |
| 20260506184058 | 14 | 94 | 0.0 | 3.2 | 0.00 | 0.00 | 0.00 | 55 | 1013.9 |
| 20260506183559 | 14 | 90 | 0.0 | 3.2 | 0.00 | 0.00 | 0.00 | 52 | 1013.9 |
| 20260506183100 | 14 | 106 | 0.0 | 3.2 | 0.00 | 0.00 | 0.00 | 51 | 1013.9 |
| 20260506182558 | 15 | 0 | 1.6 | 4.8 | 0.00 | 0.00 | 0.00 | 52 | 1013.9 |
| 20260506182058 | 15 | 0 | 1.6 | 6.4 | 0.00 | 0.00 | 0.00 | 50 | 1013.9 |
| 20260506181559 | 15 | 97 | 1.6 | 6.4 | 0.00 | 0.00 | 0.00 | 50 | 1013.9 |
| 20260506181059 | 15 | 96 | 1.6 | 6.4 | 0.00 | 0.00 | 0.00 | 52 | 1013.9 |
| 20260506180559 | 15 | 63 | 0.0 | 4.8 | 0.00 | 0.00 | 0.00 | 50 | 1013.9 |
| 20260506180100 | 15 | 80 | 1.6 | 4.8 | 0.00 | 0.00 | 0.00 | 49 | 1013.9 |
| 20260506175558 | 15 | 105 | 1.6 | 6.4 | 0.00 | 0.00 | 0.00 | 50 | 1013.8 |
| 20260506175058 | 15 | 84 | 3.2 | 6.4 | 0.00 | 0.00 | 0.00 | 47 | 1013.7 |
| 20260506174558 | 15 | 96 | 1.6 | 9.7 | 0.00 | 0.00 | 0.00 | 51 | 1013.7 |
| 20260506174058 | 15 | 79 | 1.6 | 9.7 | 0.00 | 0.00 | 0.00 | 50 | 1013.6 |
| 20260506173557 | 15 | 78 | 3.2 | 9.7 | 0.00 | 0.00 | 0.00 | 48 | 1013.6 |
| 20260506173123 | 15 | 83 | 1.6 | 11.3 | 0.00 | 0.00 | 0.00 | 51 | 1013.6 |
| 20260506172558 | 15 | 134 | 3.2 | 11.3 | 0.00 | 0.00 | 0.00 | 48 | 1013.6 |
| 20260506172058 | 15 | 96 | 3.2 | 11.3 | 0.00 | 0.00 | 0.00 | 47 | 1013.5 |
| 20260506171559 | 15 | 144 | 3.2 | 11.3 | 0.00 | 0.00 | 0.00 | 49 | 1013.4 |
| 20260506171058 | 15 | 81 | 4.8 | 11.3 | 0.00 | 0.00 | 0.00 | 51 | 1013.5 |
| 20260506170602 | 15 | 77 | 1.6 | 6.4 | 0.00 | 0.00 | 0.00 | 49 | 1013.4 |
| 20260506165558 | 15 | 90 | 3.2 | 11.3 | 0.00 | 0.00 | 0.00 | 49 | 1013.3 |
| 20260506165059 | 15 | 74 | 3.2 | 11.3 | 0.00 | 0.00 | 0.00 | 51 | 1013.3 |
| 20260506164558 | 15 | 0 | 3.2 | 9.7 | 0.00 | 0.00 | 0.00 | 44 | 1013.4 |
| 20260506164100 | 15 | 97 | 0.0 | 8.0 | 0.00 | 0.00 | 0.00 | 48 | 1013.3 |
| 20260506163558 | 15 | 76 | 3.2 | 11.3 | 0.00 | 0.00 | 0.00 | 47 | 1013.4 |
| 20260506163109 | 16 | 157 | 3.2 | 11.3 | 0.00 | 0.00 | 0.00 | 46 | 1013.4 |
| 20260506162558 | 16 | 107 | 3.2 | 11.3 | 0.00 | 0.00 | 0.00 | 49 | 1013.4 |
| 20260506162058 | 16 | 86 | 3.2 | 12.9 | 0.00 | 0.00 | 0.00 | 43 | 1013.4 |
| 20260506161605 | 17 | 72 | 3.2 | 14.5 | 0.00 | 0.00 | 0.00 | 46 | 1013.5 |
| 20260506161057 | 17 | 69 | 4.8 | 14.5 | 0.00 | 0.00 | 0.00 | 44 | 1013.5 |
| 20260506160558 | 16 | 109 | 3.2 | 14.5 | 0.00 | 0.00 | 0.00 | 43 | 1013.5 |
| 20260506155600 | 16 | 300 | 3.2 | 12.9 | 0.00 | 0.00 | 0.00 | 46 | 1013.5 |
| 20260506155058 | 16 | 115 | 1.6 | 11.3 | 0.00 | 0.00 | 0.00 | 49 | 1013.6 |
| 20260506154607 | 16 | 9 | 3.2 | 12.9 | 0.00 | 0.00 | 0.00 | 45 | 1013.7 |
| 20260506154059 | 16 | 325 | 0.0 | 16.1 | 0.00 | 0.00 | 0.00 | 45 | 1013.6 |
| 20260506153558 | 17 | 12 | 4.8 | 19.3 | 0.00 | 0.00 | 0.00 | 44 | 1013.7 |